User: anonymous
Location: Chequamegon National Forest
(46.1070°N, 90.8420°W)
Time: 12:26:44
(UTC-05:00)
Language:

ISS - Orbit

View from above orbital plane
View from above orbital plane
View from above satellite
View from above satellite

Ground track
Ground track

The orbit data is extracted from the following two-line orbital elements,

1 25544U 98067A   14203.43004948  .00001326  00000-0  31112-4 0  7455
2 25544 051.6467 284.8944 0005458 284.0116 179.6388 15.50116386896791
Epoch (UTC): 22 July 2014 10:19:16
Eccentricity: 0.0005458
inclination: 51.6467°
perigee height: 412 km
apogee height: 420 km
right ascension of ascending node: 284.8944°
argument of perigee: 284.0116°
revolutions per day: 15.50116386
mean anomaly at epoch: 179.6388°
orbit number at epoch: 89679

The dashed part of the orbit path shows where the satellite is in the earth's shadow,  

DLR